When you browse on this site, cookies collect data to enhance your experience and personalize the content and advertising you see.
Visit our Privacy Policy to learn more. By continuing to use the site, you agree to this use of cookies and data.
  • In Lithuania
  • List of Countries
  • For 7 days
  • Water Temperature
  • Satellite Maps
  • Weather Map
  • Weather Widgets
  • user-avatar
    Login

    Hourly Weather Portalegre

    Today, 27 March, Wednesday

    Time Temperature Precipitation Wind Pressure Humidity
    00:00 +12°C° 0 mm 4 mps 723 mmHg 44%
    01:00 +12°C° 0 mm 4 mps 723 mmHg 44%
    02:00 +12°C° 0 mm 5 mps 723 mmHg 44%
    03:00 +10°C° 0 mm 5 mps 724 mmHg 44%
    04:00 +9°C° 0 mm 5 mps 724 mmHg 47%
    05:00 +9°C° 0 mm 5 mps 725 mmHg 49%
    06:00 +8°C° 0 mm 5 mps 725 mmHg 51%
    07:00 +9°C° 0 mm 5 mps 725 mmHg 50%
    08:00 +10°C° 0 mm 5 mps 726 mmHg 49%
    09:00 +11°C° 0 mm 6 mps 727 mmHg 47%
    10:00 +13°C° 0 mm 6 mps 727 mmHg 44%
    11:00 +15°C° 0 mm 5 mps 727 mmHg 40%
    12:00 +17°C° 0 mm 5 mps 727 mmHg 36%
    13:00 +19°C° 0 mm 5 mps 727 mmHg 35%
    14:00 +19°C° 0 mm 5 mps 727 mmHg 35%
    15:00 +20°C° 0 mm 4 mps 726 mmHg 34%
    16:00 +19°C° 0 mm 3 mps 726 mmHg 41%
    17:00 +18°C° 0 mm 3 mps 726 mmHg 48%
    18:00 +16°C° 0 mm 2 mps 726 mmHg 54%
    19:00 +15°C° 0 mm 2 mps 726 mmHg 55%
    20:00 +13°C° 0 mm 2 mps 727 mmHg 55%
    21:00 +10°C° 0 mm 2 mps 727 mmHg 55%
    22:00 +10°C° 0 mm 2 mps 727 mmHg 55%
    23:00 +9°C° 0 mm 2 mps 727 mmHg 54%

    Tomorrow, 28 March, Thursday

    Time Temperature Precipitation Wind Pressure Humidity
    00:00 +8°C° 0 mm 2 mps 728 mmHg 54%
    01:00 +9°C° 0 mm 1 mps 727 mmHg 54%
    02:00 +8°C° 0 mm 1 mps 727 mmHg 53%
    03:00 +8°C° 0 mm 1 mps 727 mmHg 53%
    04:00 +7°C° 0 mm 1 mps 728 mmHg 53%
    05:00 +6°C° 0 mm 2 mps 728 mmHg 54%
    06:00 +5°C° 0 mm 2 mps 728 mmHg 54%
    07:00 +7°C° 0 mm 2 mps 728 mmHg 52%
    08:00 +9°C° 0 mm 2 mps 728 mmHg 49%
    09:00 +11°C° 0 mm 3 mps 729 mmHg 47%
    10:00 +13°C° 0 mm 3 mps 729 mmHg 43%
    11:00 +16°C° 0 mm 3 mps 729 mmHg 39%
    12:00 +18°C° 0 mm 4 mps 729 mmHg 35%
    13:00 +19°C° 0 mm 3 mps 728 mmHg 34%
    14:00 +20°C° 0 mm 3 mps 728 mmHg 33%
    15:00 +20°C° 0 mm 3 mps 727 mmHg 32%
    16:00 +19°C° 0 mm 2 mps 727 mmHg 39%
    17:00 +18°C° 0 mm 2 mps 727 mmHg 46%
    18:00 +18°C° 0 mm 1 mps 726 mmHg 53%
    19:00 +15°C° 0 mm 1 mps 726 mmHg 53%
    20:00 +13°C° 0 mm 1 mps 727 mmHg 53%
    21:00 +11°C° 0 mm 1 mps 727 mmHg 54%
    22:00 +10°C° 0 mm 1 mps 727 mmHg 52%
    23:00 +9°C° 0 mm 2 mps 727 mmHg 51%

    Day after tomorrow, 29 March, Friday

    Time Temperature Precipitation Wind Pressure Humidity
    00:00 +8°C° 0 mm 2 mps 726 mmHg 50%
    01:00 +7°C° 0 mm 2 mps 726 mmHg 50%
    02:00 +7°C° 0 mm 2 mps 726 mmHg 49%
    03:00 +6°C° 0 mm 2 mps 726 mmHg 49%
    04:00 +6°C° 0 mm 2 mps 726 mmHg 51%
    05:00 +6°C° 0 mm 2 mps 726 mmHg 53%
    06:00 +5°C° 0 mm 2 mps 726 mmHg 56%
    07:00 +7°C° 0 mm 2 mps 726 mmHg 54%
    08:00 +9°C° 0 mm 3 mps 726 mmHg 52%
    09:00 +12°C° 0 mm 3 mps 727 mmHg 49%
    10:00 +13°C° 0 mm 3 mps 727 mmHg 45%
    11:00 +15°C° 0 mm 4 mps 727 mmHg 40%
    12:00 +18°C° 0 mm 4 mps 727 mmHg 36%
    13:00 +19°C° 0 mm 4 mps 726 mmHg 35%
    14:00 +19°C° 0 mm 3 mps 726 mmHg 34%
    15:00 +20°C° 0 mm 3 mps 725 mmHg 33%
    16:00 +19°C° 0 mm 2 mps 725 mmHg 40%
    17:00 +18°C° 0 mm 2 mps 724 mmHg 47%
    18:00 +16°C° 0 mm 1 mps 724 mmHg 54%
    19:00 +15°C° 0 mm 1 mps 724 mmHg 55%
    20:00 +13°C° 0 mm 1 mps 724 mmHg 56%
    21:00 +11°C° 0 mm 1 mps 725 mmHg 58%
    22:00 +10°C° 0 mm 1 mps 724 mmHg 58%
    23:00 +10°C° 0 mm 1 mps 724 mmHg 57%

    30 March, Saturday

    Time Temperature Precipitation Wind Pressure Humidity
    00:00 +8°C° 0 mm 2 mps 724 mmHg 57%
    01:00 +8°C° 0 mm 2 mps 724 mmHg 57%
    02:00 +7°C° 0 mm 2 mps 724 mmHg 57%
    03:00 +7°C° 0 mm 2 mps 724 mmHg 57%
    04:00 +6°C° 0 mm 2 mps 723 mmHg 59%
    05:00 +6°C° 0 mm 2 mps 723 mmHg 62%
    06:00 +5°C° 0 mm 2 mps 723 mmHg 65%
    07:00 +7°C° 0 mm 2 mps 724 mmHg 62%
    08:00 +9°C° 0 mm 3 mps 724 mmHg 59%
    09:00 +11°C° 0 mm 3 mps 724 mmHg 56%
    10:00 +13°C° 0 mm 3 mps 724 mmHg 52%
    11:00 +16°C° 0 mm 3 mps 724 mmHg 47%
    12:00 +18°C° 0 mm 3 mps 724 mmHg 43%
    13:00 +19°C° 0 mm 3 mps 723 mmHg 42%
    14:00 +20°C° 0 mm 3 mps 723 mmHg 41%
    15:00 +20°C° 0 mm 3 mps 722 mmHg 40%
    16:00 +19°C° 0 mm 2 mps 722 mmHg 46%
    17:00 +18°C° 0 mm 2 mps 721 mmHg 52%
    18:00 +18°C° 0 mm 1 mps 721 mmHg 58%
    19:00 +16°C° 0 mm 2 mps 721 mmHg 60%
    20:00 +14°C° 0 mm 2 mps 721 mmHg 62%
    21:00 +12°C° 0 mm 2 mps 721 mmHg 64%
    22:00 +12°C° 0 mm 2 mps 721 mmHg 61%
    23:00 +10°C° 0 mm 2 mps 721 mmHg 58%

    31 March, Sunday

    Time Temperature Precipitation Wind Pressure Humidity
    00:00 +10°C° 0 mm 2 mps 721 mmHg 54%
    01:00 +9°C° 0 mm 2 mps 720 mmHg 56%
    02:00 +9°C° 0 mm 3 mps 720 mmHg 57%
    03:00 +8°C° 0 mm 3 mps 720 mmHg 58%
    04:00 +8°C° 0 mm 3 mps 719 mmHg 61%
    05:00 +8°C° 0 mm 3 mps 719 mmHg 64%
    06:00 +8°C° 0 mm 3 mps 719 mmHg 67%
    07:00 +8°C° 0 mm 4 mps 720 mmHg 64%
    08:00 +11°C° 0 mm 4 mps 720 mmHg 61%
    09:00 +13°C° 0 mm 4 mps 720 mmHg 58%
    10:00 +14°C° 0 mm 4 mps 720 mmHg 53%
    11:00 +17°C° 0 mm 4 mps 720 mmHg 48%
    12:00 +19°C° 0 mm 4 mps 720 mmHg 43%
    13:00 +20°C° 0 mm 4 mps 719 mmHg 42%
    14:00 +20°C° 0 mm 3 mps 719 mmHg 41%
    15:00 +21°C° 0 mm 3 mps 719 mmHg 39%
    16:00 +20°C° 0 mm 3 mps 719 mmHg 46%
    17:00 +19°C° 0 mm 2 mps 719 mmHg 52%
    18:00 +18°C° 0 mm 2 mps 719 mmHg 58%
    19:00 +16°C° 0 mm 2 mps 719 mmHg 64%
    20:00 +14°C° 0 mm 2 mps 719 mmHg 69%
    21:00 +12°C° 0 mm 2 mps 720 mmHg 75%
    22:00 +10°C° 0 mm 2 mps 720 mmHg 77%
    23:00 +10°C° 0 mm 2 mps 720 mmHg 80%

    1 April, Monday

    Time Temperature Precipitation Wind Pressure Humidity
    00:00 +9°C° 0 mm 2 mps 720 mmHg 82%
    01:00 +9°C° 0 mm 2 mps 720 mmHg 85%
    02:00 +8°C° 0 mm 2 mps 720 mmHg 88%
    03:00 +7°C° 0 mm 2 mps 720 mmHg 90%
    04:00 +7°C° 0 mm 2 mps 720 mmHg 91%
    05:00 +7°C° 0 mm 2 mps 720 mmHg 92%
    06:00 +6°C° 0 mm 2 mps 720 mmHg 93%
    07:00 +9°C° 0 mm 2 mps 720 mmHg 84%
    08:00 +11°C° 0 mm 3 mps 721 mmHg 75%
    09:00 +13°C° 0 mm 3 mps 721 mmHg 67%
    10:00 +16°C° 0 mm 3 mps 721 mmHg 61%
    11:00 +17°C° 0 mm 3 mps 721 mmHg 54%
    12:00 +19°C° 0 mm 3 mps 721 mmHg 48%
    13:00 +19°C° 0.4 mm 2 mps 721 mmHg 50%
    14:00 +19°C° 0.4 mm 2 mps 720 mmHg 52%
    15:00 +19°C° 0.4 mm 2 mps 720 mmHg 54%
    16:00 +20°C° 0.7 mm 1 mps 720 mmHg 59%
    17:00 +19°C° 0.7 mm 1 mps 720 mmHg 64%
    18:00 +16°C° 0.7 mm 0 mps 720 mmHg 69%
    19:00 +14°C° 0.5 mm 0 mps 720 mmHg 73%
    20:00 +12°C° 0.5 mm 0 mps 721 mmHg 77%
    21:00 +12°C° 0.5 mm 1 mps 721 mmHg 81%
    22:00 +11°C° 0.5 mm 1 mps 721 mmHg 84%
    23:00 +11°C° 0.5 mm 1 mps 721 mmHg 87%
    Show more